Weather in Koyegoshcha

Russia / Novgorod Oblast     58°25′30″N   33°52′24″E
temp.,
°C
wind,
m/s
gust,
m/s
humid.,
%
clouds,
%
prec.,
mm/h
press.,
hPa
HPBL,
m
3 march, wed
wed300:00−3nw310900 0.0 1016412
03:00−3wnw310965 0.0 1017363
06:00−1wnw4109294 0.1 1015703
09:00−1wnw598996 0.1 1015720
12:00−1w5986100 0.0 1014758
15:000w51084100 0.1 1012910
18:00+1w51283100 0.0 10081048
21:000w61397100 0.2 1005886
4 march, thu
thu400:00+1w71497100 1.1 10011045
03:000nw7149099 3.4 10011143
06:00−3wnw5118861 0.1 1001763
09:00−4nw4108777 0.1 1002695
12:00−2nw4679100 0.0 1002724
15:00−2nw357695 0.1 1002855
18:00−3nnw239096 0.1 1002126
21:00−5nnw239597 0.2 1003131
5 march, fri
fri500:00−6nw378999 0.1 1003480
03:00−6nw4991100 0.3 1005608
06:00−8nw4991100 0.1 1006581
09:00−7nw478699 0.2 1007719
12:00−6nw4676100 0.1 1008896
15:00−5nw4675100 0.3 1010958
18:00−7nw3783100 0.1 1011727
21:00−9nnw3788100 0.2 1015442
6 march, sat
sat600:00−11nnw23930 0.0 1016117
03:00−12wnw249237 0.0 1017155
06:00−12w259141 0.0 1017155
09:00−10w369059 0.0 1017328
12:00−6w3676100 0.1 1016838
15:00−5wsw4667100 0.1 10141147
18:00−5sw4979100 0.0 1010881
21:00−6sw71489100 0.3 10051097
7 march, sun
sun700:00−4sw71590100 0.8 9981272
03:00−3sw71691100 2.1 9921229
06:00−2sw71496100 1.8 9891124
09:00−9w5156083 2.9 9911619
12:00−7wsw597563 0.2 9911221
15:00−6wnw6107381 0.6 9911483
18:00−8wnw3881100 0.4 992974
21:00−10nnw398695 0.6 994602